Back to catalog

ATLAS 5 CENTAUR DEB

LostHEO
NORAD 46641·DEBRIS·🇺🇸 United States

Launched Sep 17, 2014 from Cape Canaveral Space Force Station

Loading…

Next Passes (next 24 hours)

TLE

StaleSource: Space-Track

Epoch: Mar 16, 2023, 00:02 UTC

1 46641U 14055CR  23075.00158149 -.00000042  00000-0  00000+0 0  9997
2 46641  20.6811 250.4704 4747753 341.4995   5.7536  1.90292951 16938

Track ATLAS 5 CENTAUR DEB in real time with AllMySat

Download on the App Store